Tiempo cada hora Mundu

Hoy, 21 Octubre, Miércoles

Tiempo Temperatura Precipitaciones Viento Presión Humedad
00:00 +26°C° 0 mm 1 mps 723 mmHg 67%
01:00 +25°C° 0 mm 2 mps 722 mmHg 72%
02:00 +25°C° 0 mm 1 mps 722 mmHg 73%
03:00 +24°C° 0 mm 1 mps 722 mmHg 74%
04:00 +24°C° 0 mm 1 mps 722 mmHg 75%
05:00 +24°C° 0 mm 1 mps 722 mmHg 75%
06:00 +25°C° 0 mm 1 mps 723 mmHg 75%
07:00 +25°C° 0 mm 1 mps 723 mmHg 76%
08:00 +27°C° 0 mm 1 mps 723 mmHg 68%
09:00 +30°C° 0 mm 1 mps 724 mmHg 60%
10:00 +32°C° 0 mm 2 mps 724 mmHg 53%
11:00 +34°C° 0 mm 2 mps 723 mmHg 48%
12:00 +35°C° 0 mm 2 mps 723 mmHg 44%
13:00 +36°C° 0 mm 2 mps 722 mmHg 39%
14:00 +36°C° 0 mm 2 mps 721 mmHg 42%
15:00 +35°C° 0 mm 1 mps 721 mmHg 45%
16:00 +34°C° 0 mm 1 mps 721 mmHg 48%
17:00 +32°C° 0 mm 1 mps 721 mmHg 50%
18:00 +28°C° 0 mm 0 mps 721 mmHg 53%
19:00 +25°C° 0 mm 0 mps 722 mmHg 55%
20:00 +25°C° 0 mm 0 mps 722 mmHg 55%
21:00 +25°C° 0 mm 0 mps 723 mmHg 56%
22:00 +26°C° 0 mm 1 mps 723 mmHg 56%
23:00 +26°C° 0 mm 1 mps 723 mmHg 58%

Mañana, 22 Octubre, Jueves

Tiempo Temperatura Precipitaciones Viento Presión Humedad
00:00 +25°C° 0 mm 1 mps 723 mmHg 61%
01:00 +25°C° 0 mm 1 mps 723 mmHg 63%
02:00 +24°C° 0 mm 1 mps 723 mmHg 66%
03:00 +24°C° 0 mm 1 mps 722 mmHg 70%
04:00 +21°C° 0 mm 0 mps 722 mmHg 74%
05:00 +24°C° 0 mm 1 mps 723 mmHg 75%
06:00 +24°C° 0 mm 1 mps 723 mmHg 76%
07:00 +25°C° 0 mm 1 mps 724 mmHg 77%
08:00 +27°C° 0 mm 1 mps 724 mmHg 69%
09:00 +30°C° 0 mm 1 mps 724 mmHg 61%
10:00 +33°C° 0 mm 1 mps 725 mmHg 53%
11:00 +34°C° 0 mm 1 mps 724 mmHg 48%
12:00 +35°C° 0 mm 1 mps 723 mmHg 43%
13:00 +37°C° 0 mm 1 mps 722 mmHg 38%
14:00 +36°C° 0 mm 1 mps 722 mmHg 41%
15:00 +35°C° 0 mm 1 mps 721 mmHg 44%
16:00 +35°C° 0 mm 1 mps 721 mmHg 48%
17:00 +33°C° 0 mm 1 mps 721 mmHg 50%
18:00 +30°C° 0 mm 1 mps 722 mmHg 52%
19:00 +28°C° 0 mm 1 mps 722 mmHg 53%
20:00 +28°C° 0 mm 1 mps 723 mmHg 56%
21:00 +27°C° 0 mm 1 mps 723 mmHg 59%
22:00 +27°C° 0 mm 1 mps 723 mmHg 61%
23:00 +26°C° 0 mm 1 mps 723 mmHg 65%

Pasado mañana, 23 Octubre, Viernes

Tiempo Temperatura Precipitaciones Viento Presión Humedad
00:00 +26°C° 0 mm 1 mps 723 mmHg 68%
01:00 +26°C° 0 mm 2 mps 723 mmHg 72%
02:00 +25°C° 0 mm 1 mps 722 mmHg 74%
03:00 +25°C° 0 mm 1 mps 722 mmHg 76%
04:00 +25°C° 0 mm 1 mps 722 mmHg 78%
05:00 +25°C° 0 mm 2 mps 723 mmHg 79%
06:00 +25°C° 0 mm 2 mps 724 mmHg 80%
07:00 +26°C° 0 mm 2 mps 724 mmHg 81%
08:00 +28°C° 0 mm 2 mps 724 mmHg 74%
09:00 +29°C° 0 mm 2 mps 725 mmHg 67%
10:00 +31°C° 0 mm 2 mps 725 mmHg 60%
11:00 +34°C° 0 mm 2 mps 724 mmHg 55%
12:00 +34°C° 0 mm 1 mps 724 mmHg 50%
13:00 +35°C° 0 mm 1 mps 723 mmHg 45%
14:00 +35°C° 0 mm 1 mps 722 mmHg 46%
15:00 +35°C° 0 mm 1 mps 722 mmHg 46%
16:00 +34°C° 0 mm 1 mps 722 mmHg 47%
17:00 +32°C° 0 mm 1 mps 722 mmHg 55%
18:00 +30°C° 0 mm 2 mps 722 mmHg 62%
19:00 +28°C° 0 mm 2 mps 723 mmHg 70%
20:00 +28°C° 0 mm 2 mps 723 mmHg 73%
21:00 +27°C° 0 mm 2 mps 723 mmHg 75%
22:00 +27°C° 0 mm 2 mps 723 mmHg 78%
23:00 +26°C° 0 mm 2 mps 723 mmHg 79%

24 Octubre, Sábado

Tiempo Temperatura Precipitaciones Viento Presión Humedad
00:00 +26°C° 0 mm 2 mps 723 mmHg 80%
01:00 +25°C° 0 mm 1 mps 722 mmHg 81%
02:00 +25°C° 0 mm 1 mps 722 mmHg 80%
03:00 +26°C° 0 mm 1 mps 722 mmHg 78%
04:00 +26°C° 0 mm 1 mps 722 mmHg 76%
05:00 +26°C° 0 mm 2 mps 723 mmHg 76%
06:00 +26°C° 0 mm 2 mps 723 mmHg 75%
07:00 +26°C° 0 mm 2 mps 724 mmHg 75%
08:00 +26°C° 0 mm 2 mps 724 mmHg 75%
09:00 +26°C° 0 mm 1 mps 724 mmHg 75%
10:00 +26°C° 0 mm 1 mps 725 mmHg 75%
11:00 +28°C° 0 mm 1 mps 724 mmHg 71%
12:00 +29°C° 0 mm 1 mps 723 mmHg 67%
13:00 +30°C° 0 mm 1 mps 723 mmHg 63%
14:00 +30°C° 0 mm 1 mps 722 mmHg 64%
15:00 +30°C° 0 mm 1 mps 722 mmHg 65%
16:00 +30°C° 0 mm 1 mps 721 mmHg 66%
17:00 +28°C° 0 mm 1 mps 722 mmHg 70%
18:00 +27°C° 0 mm 1 mps 722 mmHg 74%
19:00 +26°C° 0 mm 1 mps 722 mmHg 78%
20:00 +26°C° 0 mm 1 mps 723 mmHg 77%
21:00 +26°C° 0 mm 1 mps 723 mmHg 76%
22:00 +25°C° 0 mm 1 mps 723 mmHg 75%
23:00 +25°C° 0 mm 1 mps 723 mmHg 75%

25 Octubre, Domingo

Tiempo Temperatura Precipitaciones Viento Presión Humedad
00:00 +26°C° 0 mm 1 mps 723 mmHg 75%
01:00 +26°C° 0 mm 1 mps 722 mmHg 75%
02:00 +26°C° 0 mm 1 mps 722 mmHg 76%
03:00 +26°C° 0 mm 1 mps 722 mmHg 76%
04:00 +25°C° 0 mm 1 mps 722 mmHg 77%
05:00 +26°C° 0 mm 1 mps 722 mmHg 78%
06:00 +26°C° 0 mm 1 mps 722 mmHg 79%
07:00 +26°C° 0 mm 1 mps 723 mmHg 79%
08:00 +28°C° 0 mm 1 mps 723 mmHg 72%
09:00 +30°C° 0 mm 1 mps 723 mmHg 65%
10:00 +32°C° 0 mm 1 mps 724 mmHg 58%
11:00 +33°C° 0 mm 1 mps 723 mmHg 52%
12:00 +34°C° 0 mm 1 mps 722 mmHg 47%
13:00 +35°C° 0 mm 1 mps 721 mmHg 42%
14:00 +35°C° 0 mm 1 mps 721 mmHg 44%
15:00 +34°C° 0 mm 1 mps 721 mmHg 46%
16:00 +34°C° 0 mm 1 mps 720 mmHg 48%
17:00 +32°C° 0 mm 1 mps 721 mmHg 50%
18:00 +28°C° 0 mm 0 mps 721 mmHg 52%
19:00 +26°C° 0 mm 0 mps 721 mmHg 53%
20:00 +26°C° 0 mm 0 mps 722 mmHg 55%
21:00 +27°C° 0 mm 1 mps 722 mmHg 56%
22:00 +27°C° 0 mm 1 mps 723 mmHg 57%
23:00 +26°C° 0 mm 1 mps 722 mmHg 60%

26 Octubre, Lunes

Tiempo Temperatura Precipitaciones Viento Presión Humedad
00:00 +26°C° 0 mm 1 mps 722 mmHg 63%
01:00 +25°C° 0 mm 1 mps 722 mmHg 66%
02:00 +25°C° 0 mm 1 mps 722 mmHg 69%
03:00 +25°C° 0 mm 1 mps 722 mmHg 72%
04:00 +24°C° 0 mm 1 mps 722 mmHg 76%
05:00 +25°C° 0 mm 1 mps 722 mmHg 75%
06:00 +25°C° 0 mm 1 mps 722 mmHg 75%
07:00 +26°C° 0 mm 1 mps 723 mmHg 75%
08:00 +28°C° 0 mm 1 mps 723 mmHg 65%
09:00 +30°C° 0 mm 1 mps 724 mmHg 55%
10:00 +32°C° 0 mm 2 mps 724 mmHg 45%
11:00 +34°C° 0 mm 2 mps 723 mmHg 41%
12:00 +35°C° 0 mm 1 mps 722 mmHg 37%
13:00 +36°C° 0 mm 1 mps 722 mmHg 33%
14:00 +35°C° 0 mm 1 mps 721 mmHg 35%
15:00 +35°C° 0 mm 1 mps 721 mmHg 37%
16:00 +35°C° 0 mm 1 mps 720 mmHg 39%
17:00 +32°C° 0 mm 1 mps 720 mmHg 41%
18:00 +30°C° 0 mm 1 mps 720 mmHg 43%
19:00 +28°C° 0 mm 1 mps 721 mmHg 45%
20:00 +27°C° 0 mm 1 mps 721 mmHg 44%
21:00 +27°C° 0 mm 1 mps 722 mmHg 44%
22:00 +27°C° 0 mm 1 mps 722 mmHg 44%
23:00 +26°C° 0 mm 1 mps 722 mmHg 45%

27 Octubre, Martes

Tiempo Temperatura Precipitaciones Viento Presión Humedad
00:00 +26°C° 0 mm 1 mps 722 mmHg 46%
01:00 +25°C° 0 mm 1 mps 722 mmHg 48%
02:00 +25°C° 0 mm 1 mps 722 mmHg 50%
03:00 +24°C° 0 mm 1 mps 721 mmHg 52%
04:00 +24°C° 0 mm 1 mps 721 mmHg 54%
05:00 +24°C° 0 mm 1 mps 722 mmHg 57%
06:00 +25°C° 0 mm 1 mps 722 mmHg 60%
07:00 +25°C° 0 mm 1 mps 723 mmHg 62%
08:00 +28°C° 0 mm 1 mps 723 mmHg 55%
09:00 +31°C° 0 mm 1 mps 724 mmHg 47%
10:00 +34°C° 0 mm 1 mps 724 mmHg 39%
11:00 +35°C° 0 mm 1 mps 723 mmHg 37%
12:00 +36°C° 0 mm 1 mps 722 mmHg 35%
13:00 +36°C° 0 mm 0 mps 722 mmHg 33%
14:00 +35°C° 0 mm 0 mps 721 mmHg 34%
15:00 +34°C° 0 mm 0 mps 721 mmHg 35%
16:00 +33°C° 0 mm 0 mps 720 mmHg 36%
17:00 +31°C° 0 mm 0 mps 720 mmHg 40%
18:00 +29°C° 0 mm 0 mps 721 mmHg 43%
19:00 +27°C° 0 mm 0 mps 721 mmHg 47%
20:00 +26°C° 0 mm 0 mps 721 mmHg 48%
21:00 +26°C° 0 mm 0 mps 722 mmHg 48%
22:00 +25°C° 0 mm 0 mps 722 mmHg 49%
23:00 +27°C° 0 mm 1 mps 722 mmHg 50%
Mostrar más

Necesitamos Su Consentimiento

Meteoprog y nuestros Proveedores de Servicios pueden almacenar y acceder a sus datos personales como cookies, identificadores de dispositivo u otras tecnologías similares de su dispositivo y procesar dichos datos para personalizar contenido y anuncios, además de ofrecer funciones de redes sociales y analizar el tráfico.

  • Almacenar y/o acceder a información en su dispositivo

    Se puede almacenar o acceder a cookies, identificadores de dispositivo u otra información de su dispositivo para los fines anteriormente indicados.

  • Anuncios y contenido personalizados, medición de anuncios y contenido, percepciones del público, y desarrollo de productos

    Los anuncios y el contenido pueden personalizarse en base a su perfil. Se pueden añadir más datos para personalizar mejor los anuncios y contenidos. Se puede medir el rendimiento de los anuncios y contenidos. Se puede obtener la percepción sobre el público que ha visto los anuncios y contenidos. Dichos datos pueden usarse para desarrollar o mejorar la experiencia del usuario, sistemas y software.

Al hacer clic en ‘Estoy De Acuerdo’ usted permitirá el uso de las cookies, identificadores de dispositivo, balizas web u otras tecnologías similares indicadas. Su configuración puede cambiarse desde el navegador de su dispositivo.

Para ciertos fines, los intereses legítimos pueden ser considerados por encima del consentimiento. Puede leer más sobre ello en nuestra Política de Privacidad y Cookies.